XE2WR-3 Weather Reports


time (UTC)temp
C
wind
direction
speed
KPH
gust
KPH
rain 1hr
cm
rain 24hr
cm
rain mn
cm
humidity
%
barometer
mb
20260508223055 24 72 3.2 11.3 0.00 2.46 0.05 77 1007.0
20260508221602 23 82 4.8 11.3 0.03 2.46 0.05 75 1007.1
20260508220053 23 58 9.7 16.1 0.05 2.46 0.05 77 1007.2
20260508214551 23 70 9.7 14.5 0.05 2.46 0.05 78 1007.3
20260508213110 23 80 8.0 14.5 0.05 2.46 0.05 77 1007.5
20260508211551 23 68 3.2 12.9 0.05 2.44 0.05 76 1007.9
20260508210047 23 82 4.8 16.1 0.03 2.41 0.03 79 1008.0
20260508204548 24 69 8.0 17.7 0.00 2.39 0.00 79 1008.1
20260508203045 24 100 9.7 12.9 0.00 2.39 0.00 79 1008.1
20260508201542 24 118 9.7 12.9 0.00 2.39 0.00 79 1008.4
20260508200049 25 105 8.0 12.9 0.00 2.39 0.00 79 1008.8
20260508194538 23 63 12.9 19.3 0.00 2.39 0.00 79 1008.8
20260508193108 24 70 8.0 14.5 0.00 2.39 0.00 79 1009.4
20260508191536 24 101 6.4 12.9 0.00 2.39 0.00 79 1009.2
20260508190038 23 101 6.4 16.1 0.00 2.39 0.00 79 1009.3
20260508184532 23 113 8.0 16.1 0.00 2.39 0.00 79 1009.6
20260508183029 24 71 9.7 22.5 0.00 2.39 0.00 79 1009.8
20260508181529 25 91 9.7 11.3 0.00 2.39 0.00 78 1010.1
20260508180029 24 71 4.8 9.7 0.00 2.39 0.00 79 1010.1
20260508174533 24 63 4.8 9.7 0.00 2.39 0.00 79 1010.3
20260508173019 25 131 6.4 12.9 0.00 2.39 0.00 79 1010.4
20260508171520 25 65 6.4 9.7 0.00 2.39 0.00 78 1010.5
20260508170018 24 121 3.2 6.4 0.00 2.39 0.00 79 1010.8
20260508164523 24 200 4.8 9.7 0.00 2.39 0.00 79 1011.0
20260508163012 23 126 3.2 6.4 0.00 2.39 0.00 79 1011.1
20260508161516 23 93 3.2 9.7 0.00 2.39 0.00 79 1011.2
20260508160010 23 207 1.6 6.4 0.00 2.39 0.00 79 1011.2
20260508154510 23 139 1.6 4.8 0.00 2.39 0.00 80 1011.4
20260508153008 22 245 0.0 1.6 0.00 2.39 0.00 78 1011.5
20260508151521 22 245 0.0 3.2 0.00 2.39 0.00 77 1011.8
20260508150010 22 252 1.6 4.8 0.00 2.39 0.00 78 1012.0
20260508144506 23 77 0.0 1.6 0.00 2.39 0.00 80 1011.9
20260508143002 23 76 0.0 1.6 0.00 2.39 0.00 79 1011.9
20260508141559 22 76 0.0 4.8 0.00 2.39 0.00 75 1011.8
20260508140111 22 76 1.6 6.4 0.00 2.39 0.00 75 1011.7
20260508134616 22 37 3.2 6.4 0.00 2.39 0.00 64 1011.8
20260508133104 21 70 3.2 8.0 0.00 2.39 0.00 54 1011.7
20260508131548 21 70 0.0 6.4 0.00 2.39 0.00 34 1011.8
20260508130047 21 70 0.0 6.4 0.00 2.39 0.00 34 1011.7
20260508124546 20 70 0.0 4.8 0.00 2.39 0.00 34 1011.8
20260508123047 20 70 3.2 6.4 0.00 2.39 0.00 29 1011.6
20260508121545 20 72 1.6 6.4 0.00 2.39 0.00 28 1011.5
20260508120051 20 65 3.2 8.0 0.00 2.39 0.00 29 1011.5
20260508114544 20 98 1.6 9.7 0.00 2.39 0.00 30 1011.4
20260508113053 20 75 6.4 11.3 0.00 2.39 0.00 30 1011.5
20260508111542 20 80 8.0 14.5 0.00 2.39 0.00 35 1011.5
20260508110041 20 63 4.8 8.0 0.00 2.39 0.00 32 1011.7
20260508104541 20 53 1.6 6.4 0.00 2.39 0.00 28 1011.8
20260508103041 20 58 0.0 4.8 0.00 2.39 0.00 34 1011.6
20260508101546 20 61 1.6 6.4 0.00 2.39 0.00 33 1011.6
20260508100039 20 29 4.8 9.7 0.00 2.39 0.00 26 1011.8
20260508094538 20 38 4.8 16.1 0.00 2.39 0.00 25 1011.9
20260508093037 20 70 4.8 14.5 0.00 2.39 0.00 25 1011.3
20260508091603 21 63 9.7 17.7 0.00 2.39 0.00 29 1011.3
20260508090030 21 80 11.3 17.7 0.00 2.39 0.00 34 1011.8
20260508084531 21 72 12.9 17.7 0.00 2.39 0.00 36 1012.2
20260508083032 21 110 12.9 19.3 0.00 2.39 0.00 31 1012.1
20260508081523 21 79 11.3 16.1 0.00 2.39 0.00 36 1012.1
20260508080020 21 76 4.8 8.0 0.00 2.39 0.00 38 1012.2
20260508074519 21 75 4.8 9.7 0.00 2.39 0.00 39 1012.3
20260508073015 21 81 4.8 8.0 0.00 2.39 0.00 35 1012.6
20260508071514 21 68 6.4 9.7 0.00 2.39 0.00 32 1012.7
20260508070011 21 58 6.4 11.3 0.00 2.39 0.00 32 1013.1
20260508064514 21 65 1.6 9.7 0.00 2.39 0.00 31 1013.3
20260508063004 21 65 1.6 8.0 0.00 2.39 0.00 30 1013.5
20260508061502 21 63 8.0 12.9 0.00 2.39 0.00 31 1014.0
20260508060058 21 63 11.3 20.9 0.00 2.39 0.00 30 1014.3
20260508054556 21 58 11.3 19.3 0.00 2.39 2.39 38 1014.3
20260508053101 21 74 9.7 14.5 0.00 2.39 2.39 50 1014.2
20260508051618 21 75 9.7 16.1 0.00 2.39 2.39 53 1014.1
20260508050054 21 61 14.5 25.7 0.00 2.39 2.39 49 1014.0
20260508044551 21 64 8.0 17.7 0.00 2.39 2.39 59 1014.0
20260508043049 21 97 8.0 19.3 0.00 2.39 2.39 46 1013.6
20260508041548 20 61 8.0 12.9 0.00 2.39 2.39 13 1013.1
20260508040046 20 65 6.4 12.9 0.00 2.39 2.39 14 1012.7
20260508034546 20 61 9.7 17.7 0.00 2.39 2.39 14 1012.6
20260508033049 20 82 4.8 14.5 0.00 2.39 2.39 14 1012.6
20260508031643 19 96 4.8 11.3 0.00 2.39 2.39 16 1012.6
20260508030046 19 93 3.2 14.5 0.00 2.39 2.39 17 1012.9
20260508024540 19 73 3.2 9.7 0.00 2.39 2.39 17 1012.8
20260508023039 19 150 6.4 14.5 0.08 2.39 2.39 18 1013.0
20260508021543 19 63 9.7 16.1 0.71 2.39 2.39 18 1013.1
20260508020036 20 147 11.3 19.3 1.37 2.39 2.39 17 1012.6
20260508014532 20 135 8.0 14.5 2.13 2.39 2.39 19 1012.4
20260508013029 20 148 9.7 19.3 2.18 2.31 2.31 24 1012.9
20260508011531 21 114 14.5 30.6 1.65 1.65 1.65 36 1012.5
20260508010035 22 103 6.4 9.7 0.99 0.99 0.99 59 1011.3
20260508004516 22 75 4.8 12.9 0.25 0.25 0.25 73 1011.6
20260508003013 23 29 4.8 14.5 0.13 0.13 0.13 79 1011.1
20260508001514 26 36 6.4 14.5 0.00 0.00 0.00 77 1011.0
20260508000010 26 58 6.4 17.7 0.00 0.00 0.00 77 1010.9
20260507234510 26 79 6.4 11.3 0.00 0.00 0.00 77 1010.6
20260507233009 26 90 8.0 12.9 0.00 0.00 0.00 77 1010.6
20260507231509 26 117 4.8 14.5 0.00 0.00 0.00 78 1010.6
20260507230018 26 65 12.9 17.7 0.00 0.00 0.00 77 1009.9
20260507224509 27 110 12.9 24.1 0.00 0.00 0.00 75 1009.6